OBJECT B, 69583

Orbit data source: Space-Track

You're viewing an Uncataloged Satellite

Recently launched and/or uncataloged satellites may have evolving metadata. Metadata may include but not limited to: Owner, Maufacturer, Bus, Motor, and Mission.

OBJECT B, 69583 is a satellite owned by Centispace (CN) in LEO that was launched on Wed, 17 Jun 2026 UTC via a KUAIZHOU-11 launch vehicle from the Jiuquan Satellite Launch Center, China (JSC). Unknown objects in Earth's orbit typically refer to objects detected orbiting the Earth but have not yet been identified or cataloged. These objects could be anything from previously untracked satellites, spent rocket stages, debris from satellite collisions, or even natural meteoroids temporarily captured by Earth's gravity.

Loading next visibility...
Identifier
69583, 2026-138B
Orbit
LEO
Country
Flag of CNCN / PRC
Related business
Manufacturer
HITSAT
Mission
Operational spacecraft
Bus & Motor
WK01H, Unknown motor
Mass
140 kg wet, 140 kg dry
Launch date (UTC)
2026-06-17 (2 days ago)
Launch vehicle
KUAIZHOU-11
Launch site
Jiuquan Satellite Launch Center, China (JSC)
Object type
Unknown
Shape & HBR
Unknown
Radar Cross Section
RCS unknown

Expand to show TLE details & history
Last TLE update: 1 day ago

TLE from 1 day ago
0 OBJECT B
1 69583U 26138B   26169.48293133 -.00000110  00000-0  22030-4 0  9992
2 69583  55.1443 276.3679 0009095 279.3206  80.6740 14.15750919   206
Epoch: 2026-06-18T11:35Z
TLE epoch observation values (Epoch: 2026-06-18T11:35:25.266Z)
Latitude
-0.00002°
Longitude
-164.21301°
Altitude
839.756 km
Speed
7.434 km/s
True Right ascension
18h 25m 28s
True Declination
0° 00' 00"
Sunlit
Object was in full shadow at epoch
Visualization orbit readout
Latitude
Unknown
Longitude
Unknown
Altitude
Unknown
Speed
Unknown
Apparent Right ascension
Unknown
Apparent Declination
Unknown
Sunlit
N/A
Visualization observer readout
Local Sidereal Time
05:54:05
Azimuth
Unknown
Elevation
Unknown
Doppler factor
Unknown
Orbital elements
Apogee altitude
846.266 km
Perigee altitude
833.137 km
Semi-major axis
7,217.839 km
Eccentricity
0.00091
Inclination
55.1443°
RAAN
276.3679°
Arg. of periapsis
279.3206°
True anomaly
80.77686°
Mean anomaly
80.674°
Eccentric anomaly
80.72543°
Mean motion
3.53942 °/min
Orbital period
101.71 mins
BSTAR
0.00002203
Loading maneuver chart data...
Computing Atmospheric mass density...
Loading historical data...
Loading historical data...
Loading historical data...
Loading historical data...
Loading historical data...
Loading historical data...
Loading historical data...

Documentation

Showing up to 5 results
|